Flag for Russia Weather past 2 weeks in Novorossiysk, Russia

Now
82 °F

Passing clouds.


Feels Like: 86 °F
Forecast: 65 / 91 °F
Wind: 3 mph from West

Location: Anapa / Vitiazevo

Current Time: Jul 23, 2014 at 9:11:41 PM

Latest Report: Jul 23, 2014 at 8:30 PM


Visibility: N/A

Pressure: 29.77 "Hg

Humidity: 66%

Dew point: 70 °F

Location of NovorossiyskLocation

Historic Weather in Novorossiysk — Graph

°F

Novorossiysk temperature yesterday

Maximum temperature yesterday: 84 °F (at 12:00 PM)
Minimum temperature yesterday: 64 °F (at 2:00 AM)
Average temperature yesterday: 77 °F

Past Weeks' High & Low Weather Summary

 TemperatureHumidityPressure
High97 °F (Jul 12, 1:00 PM)100% (Jul 10, 6:30 AM)29.86 "Hg (Jul 10, 6:30 AM)
Low61 °F (Jul 9, 6:00 AM)28% (Jul 12, 1:00 PM)29.68 "Hg (Jul 12, 4:00 AM)
Average78 °F69%29.76 "Hg
* Reported Jul 8 8:00 PM — Jul 23 8:00 PM, Novorossiysk, Weather by CustomWeather, © 2014

Note: Actual official high and low records may vary slightly from our data, if they occured in-between our weather recording intervals... More about our weather records

Advertising

Novorossiysk weather history for previous 24 hours

 ConditionsComfort  
Time TempWeatherWind HumidityBarometerVisibility
8:00 PM
Jul 23
84 °FSunny.1 mph62%29.77 "Hg10 mi
7:30 PM84 °FPassing clouds.3 mph62%29.77 "HgN/A
7:00 PM86 °FSunny.6 mph59%29.77 "Hg10 mi
6:30 PM86 °FPassing clouds.8 mph59%29.77 "HgN/A
6:00 PM86 °FPassing clouds.8 mph59%29.77 "HgN/A
5:30 PM86 °FPassing clouds.8 mph59%29.80 "HgN/A
5:00 PM88 °FScattered clouds.6 mph52%29.80 "HgN/A
4:00 PM88 °FScattered clouds.6 mph52%29.80 "HgN/A
3:30 PM86 °FScattered clouds.6 mph55%29.80 "HgN/A
3:00 PM86 °FScattered clouds.8 mph55%29.83 "HgN/A
2:30 PM84 °FPassing clouds.13 mph58%29.83 "HgN/A
2:00 PM86 °FPassing clouds.8 mph55%29.83 "HgN/A
1:30 PM86 °FPassing clouds.10 mph52%29.83 "HgN/A
1:00 PM86 °FSunny.10 mph49%29.83 "Hg10 mi
12:00 PM90 °FPassing clouds.10 mph33%29.83 "HgN/A
10:00 AM84 °FSunny.10 mph51%29.83 "Hg10 mi
9:30 AM82 °FPassing clouds.6 mph55%29.83 "HgN/A
9:00 AM81 °FSunny.8 mph58%29.83 "Hg10 mi
8:30 AM79 °FSunny.10 mph65%29.83 "Hg10 mi
8:00 AM75 °FPassing clouds.6 mph69%29.83 "HgN/A
7:30 AM72 °FSunny.8 mph83%29.83 "Hg10 mi
7:00 AM68 °FClear.6 mph88%29.83 "Hg10 mi
6:30 AM68 °FClear.6 mph88%29.83 "Hg10 mi
6:00 AM66 °FClear.6 mph94%29.83 "Hg10 mi
5:00 AM68 °FClear.3 mph88%29.83 "Hg10 mi
4:00 AM66 °FClear.3 mph94%29.83 "Hg10 mi
9:00 PM
Jul 22
77 °FSunny.6 mph79%29.83 "Hg10 mi
Weather by CustomWeather, © 2014

See weather overviewHow to use our weather pages